Regional Weather Roundup
Issued by NWS Jackson, KY

Home | Current Version | Previous Version | Graphics & Text | Print | Product List | Glossary On
Versions: 1 2 3 4 5 6 7 8 9 10 11 12 13 14 15 16 17 18 19 20 21 22 23 24 25 26 27
000
ASUS43 KJKL 240910
RWRJKL

EAST KENTUCKY HOURLY WEATHER ROUNDUP
NATIONAL WEATHER SERVICE JACKSON KY
500 AM EDT MON APR 24 2017

NOTE: "FAIR" INDICATES FEW OR NO CLOUDS BELOW 12,000 FEET WITH
NO SIGNIFICANT WEATHER AND/OR OBSTRUCTIONS TO VISIBILITY.

* THESE REPORTS ARE NOT UNDER NWS QUALITY CONTROL AND MAY NOT
  REPORT WEATHER SUCH AS PRECIPITATION AND FOG.

KYZ079-080-083-085-087-088-110-112-115-119-120-241000
...EASTERN KENTUCKY...

CITY           SKY/WX    TMP DP  RH WIND       PRES   REMARKS
JACKSON        CLOUDY    50  48  93 VRB3      29.85F
LONDON         CLOUDY    52  48  86 NE8       29.84F
SOMERSET*      CLOUDY    52  50  93 E6        29.85F
MONTICELLO*    CLOUDY    53  51  93 NW9       29.84F
WILLIAMSBURG*  CLOUDY    52  52 100 NE6       29.83S
MIDDLESBORO*   CLOUDY    51  51 100 CALM      29.83S
HARLAN APT*    CLOUDY    52  48  87 CALM      29.83F
PIKE CO APT*   CLOUDY    48  48 100 NE8       29.87S
BIG SANDY APT* CLOUDY    49  49 100 NE6       29.88F
MOREHEAD APT*  CLOUDY    54  46  76 NE8       29.89F
ASHLAND*       CLOUDY    55  48  76 CALM      29.89R
$$

KYZ035-036-041-042-044-050-067-078-099-241000
...CENTRAL KENTUCKY...

CITY           SKY/WX    TMP DP  RH WIND       PRES   REMARKS
MT STERLING*   CLOUDY    54  45  71 E8        29.89F
FLEMING/MASON* CLOUDY    55  42  62 NE7       29.90S
DANVILLE*      CLOUDY    50  48  93 CALM      29.86F
LEXINGTON      CLOUDY    55  45  68 NE8       29.87F
FRANKFORT      CLOUDY    58  43  57 NE5       29.87S
LOUISVILLE     CLOUDY    55  45  68 N8        29.87S
LEBANON*       PTSUNNY   54  46  76 NE6       29.86R
GLASGOW*       CLOUDY    54  50  88 E9        29.83S
BOWLING GREEN  CLOUDY    54  51  90 N3        29.84R
$$

KYZ091>093-OHZ055-061-077-WVZ005-015-034-035-042-241000
...SOUTHERN OHIO/WEST VIRGINIA...

CITY           SKY/WX    TMP DP  RH WIND       PRES   REMARKS
COVINGTON      PTCLDY    51  37  58 N10       29.92S
COLUMBUS       PTCLDY    48  37  65 NE3       29.95F
DAYTON         PTCLDY    46  35  65 NE12      29.96F
WILMINGTON     CLEAR     46  38  73 NE9       29.93R
HUNTINGTON     CLOUDY    53  49  86 E7        29.89F
CHARLESTON     CLOUDY    51  48  89 NE5       29.90F
PINEVILLE*     CLOUDY    49  47  91 MISG      29.92F
BECKLEY        LGT RAIN  46  43  89 E14G25    29.89F
BLUEFIELD      LGT RAIN  43  41  93 SE9G18    29.90F
LOGAN CO APT*  CLOUDY    48  48 100 CALM      29.88S
$$

VAZ002-007-008-TNZ017-027-036-066-071-241000
...SOUTHWEST VIRGINIA/EAST TENNESSEE...

CITY           SKY/WX    TMP DP  RH WIND       PRES   REMARKS
WISE*          FOG       46  46 100 CALM      29.85R VSB 1/4
JONESVILLE*      N/A     50  48  93 CALM      29.84S
ABINGDON*      MOCLDY    49  47  92 E13G20    29.83S
BRISTOL        CLOUDY    49  46  90 N5        29.80F
MORRISTOWN*    PTSUNNY   52  50  93 NE8       29.79R
SEVIERVILLE*   CLOUDY    50  50 100 CALM      29.78F
KNOXVILLE      CLOUDY    53  50  89 NE5       29.79R
LAFOLLETTE*    CLOUDY    54  52  94 CALM      29.84S
OAK RIDGE      CLOUDY    55  49  80 VRB3      29.81S
CROSSVILLE     CLOUDY    50  49  96 NE6       29.81S FOG
NASHVILLE      CLOUDY    54  52  93 NE8       29.81S
$$

...KEY TO REMARKS...
VSB - VISIBILITY IN MILES
WCI - WIND CHILL INDEX
HX  - HEAT INDEX

$$




USA.gov is the U.S. government's official web portal to all federal, state and local government web resources and services.